Back to catalog

STARLINK-30780

AliveCommunicationsVLEO
NORAD 58140·PAYLOAD·🇺🇸 United States

Launched Oct 22, 2023 from Cape Canaveral Space Force Station

Loading…

Next Passes (next 24 hours)

TLE

FreshSource: CelesTrak SupGP

Epoch: Sep 14, 2026, 21:36 UTC

1 58140C 23162Y   26257.90048611 -.00066585  00000+0 -24118-2 0  2579
2 58140  43.0025 143.7109 0001333 269.1110 208.7889 15.27609954    10

Track STARLINK-30780 in real time with AllMySat

Download on the App Store